Tracking 29892 objects as of 21-Nov-2024
HD Live streaming from Space Station
objects crossing your sky now

STARLINK-30951

Track STARLINK-30951 now!
10-day predictions
STARLINK-30951 is classified as:


NORAD ID: 58439
Int'l Code: 2023-183C
Perigee: 565.3 km
Apogee: 567.0 km
Inclination: 43.0 °
Period: 95.8 minutes
Semi major axis: 6937 km
RCS: Unknown
Launch date: November 28, 2023
Source: United States (US)
Launch site: AIR FORCE EASTERN TEST RANGE (AFETR)
Your satellite tracking list
Your tracking list is empty




NASA's NSSDC Master Catalog

Two Line Element Set (TLE):
1 58439U 23183C   24325.83630107  .00002179  00000-0  17630-3 0  9999
2 58439  43.0031  98.1745 0001245 270.5937  89.4762 15.02547668 55450
Source of the keplerian elements: AFSPC